Location: Sternwarte-Kraichtal
(49.1689°N, 8.6996°E)
Time: 16:01:14
(UTC+02:00)

BlueWalker 3 - Pass Details

Date: 01 March 2024
Orbit: 485 x 495 km, 53.2° (Epoch: 25 April)

Event Time Altitude Azimuth Distance (km) Brightness Sun altitude
Rises 18:54:08 0° 292° (WNW) 2,564 7.0 -8.2°
Reaches altitude 10° 18:56:20 10° 296° (WNW) 1,679 5.7 -8.5°
Maximum altitude 19:00:05 61° 17° (NNE) 558 2.1 -9.1°
Enters shadow 19:03:18 13° 97° (E) 1,464 3.6 -9.7°
